Gainesville, TX

4:00 PM CDT on June 26, 2017 (GMT -0500)
Gainesville Municipal

Weather History for KGLE - May, 2014

Change the Weather History Date:

Wednesday, May 14, 2014

  Actual Average (KDTO) Record (KDTO)
Temperature  
Mean Temperature 59 °F -  
Max Temperature 69 °F 81 °F 90 °F (2017)
Min Temperature 49 °F 58 °F 46 °F (2000)
Degree Days  
Heating Degree Days 6    
Growing Degree Days 9 (Base 50)    
Moisture  
Dew Point 43 °F    
Average Humidity 62    
Maximum Humidity 94    
Minimum Humidity 29    
Precipitation  
Precipitation 0.01 in - - ()
Sea Level Pressure  
Sea Level Pressure 30.25 in    
Wind  
Wind Speed 9 mph (NNW)    
Max Wind Speed 23 mph    
Max Gust Speed 30 mph    
Visibility 10 miles    
Events Rain    
Averages and records for this station are not official NWS values.
T = Trace of Precipitation, MM = Missing Value Source: NWS Daily Summary

Daily Weather History Graph

Daily Weather History Graph

Search for Another Location

Airport or City:

Trip Planner

Search our weather history database for the weather conditions in past years. The results will help you decide how hot, cold, wet, or windy it might be!

Date:

Astronomy

May. 14, 2014 Rise Set
Actual Time 6:28 AM CDT 8:21 PM CDT
Civil Twilight 6:01 AM CDT 8:49 PM CDT
Nautical Twilight 5:28 AM CDT 9:22 PM CDT
Astronomical Twilight 4:52 AM CDT 9:58 PM CDT
Moon 8:29 PM CDT (5/14) 6:26 AM CDT (5/14)
Length of Visible Light 14h 48m
Length of Day
13h 53m
Full, 100% of the Moon is Illuminated
May 14
Full
May 14
Full
May 21
Last Quarter
May 28
New
Jun 5
First Quarter

Hourly Weather History & Observations

Time (CDT) Temp. Dew Point Humidity Pressure Visibility Wind Dir Wind Speed Gust Speed Precip Events Conditions
12:15 AM 52.2 °F 48.4 °F 87% 30.29 in 7.0 mi NW 11.5 mph - 0.04 in Rain Rain
12:35 AM 52.0 °F 48.7 °F 89% 30.29 in 10.0 mi NW 9.2 mph - 0.05 in Rain Rain
12:55 AM 51.8 °F 50.0 °F 94% 30.30 in 10.0 mi NNW 6.9 mph - N/A Rain Light Rain
1:15 AM 52.2 °F 49.5 °F 91% 30.30 in 10.0 mi NW 6.9 mph - N/A Rain Rain
1:35 AM 51.8 °F 49.1 °F 90% 30.29 in 10.0 mi NW 5.8 mph - 0.01 in Rain Light Rain
1:55 AM 51.8 °F 48.4 °F 88% 30.29 in 10.0 mi North 6.9 mph - 0.01 in Rain Light Rain
2:15 AM 51.8 °F 48.6 °F 89% 30.29 in 10.0 mi North 4.6 mph - N/A   Light Drizzle
2:35 AM 51.8 °F 48.4 °F 88% 30.27 in 10.0 mi NE 6.9 mph - N/A   Light Drizzle
2:55 AM 52.0 °F 48.6 °F 88% 30.26 in 10.0 mi NNE 5.8 mph - N/A   Overcast
3:15 AM 52.0 °F 47.8 °F 86% 30.26 in 10.0 mi North 5.8 mph - N/A   Overcast
3:35 AM 51.8 °F 48.9 °F 90% 30.26 in 10.0 mi NNW 5.8 mph - N/A   Overcast
3:55 AM 51.4 °F 48.4 °F 89% 30.26 in 10.0 mi NW 5.8 mph - N/A   Overcast
4:15 AM 51.1 °F 48.2 °F 90% 30.26 in 10.0 mi WNW 9.2 mph - N/A   Overcast
4:35 AM 51.3 °F 47.5 °F 87% 30.26 in 10.0 mi WNW 13.8 mph - N/A   Scattered Clouds
4:55 AM 51.1 °F 47.5 °F 87% 30.27 in 10.0 mi WNW 10.4 mph - N/A   Scattered Clouds
5:15 AM 50.9 °F 47.7 °F 89% 30.27 in 10.0 mi WNW 8.1 mph - N/A   Scattered Clouds
5:35 AM 50.4 °F 47.5 °F 90% 30.27 in 10.0 mi WNW 6.9 mph - N/A   Clear
5:55 AM 49.6 °F 47.5 °F 92% 30.27 in 10.0 mi WNW 6.9 mph - N/A   Clear
6:15 AM 49.1 °F 46.8 °F 92% 30.27 in 10.0 mi WNW 8.1 mph - N/A   Clear
6:35 AM 49.1 °F 46.4 °F 90% 30.27 in 10.0 mi WNW 8.1 mph - N/A   Clear
6:55 AM 49.3 °F 46.4 °F 90% 30.27 in 10.0 mi West 8.1 mph - N/A   Clear
7:15 AM 49.3 °F 46.4 °F 90% 30.27 in 10.0 mi West 5.8 mph - N/A   Clear
7:35 AM 50.0 °F 45.9 °F 86% 30.27 in 10.0 mi West 4.6 mph - N/A   Clear
7:55 AM 51.1 °F 46.2 °F 83% 30.28 in 10.0 mi West 3.5 mph - N/A   Scattered Clouds
8:15 AM 52.0 °F 45.7 °F 79% 30.28 in 10.0 mi NW 5.8 mph - N/A   Scattered Clouds
8:35 AM 52.7 °F 45.3 °F 76% 30.28 in 10.0 mi WNW 10.4 mph - N/A   Clear
8:55 AM 53.4 °F 46.4 °F 77% 30.28 in 10.0 mi NW 8.1 mph - N/A   Clear
9:15 AM 54.5 °F 45.9 °F 73% 30.28 in 10.0 mi NNW 10.4 mph - N/A   Clear
9:35 AM 55.8 °F 47.1 °F 73% 30.28 in 10.0 mi NNW 9.2 mph - N/A   Clear
9:55 AM 56.5 °F 46.0 °F 68% 30.28 in 10.0 mi North 11.5 mph 17.3 mph N/A   Clear
10:15 AM 59.0 °F 46.4 °F 63% 30.28 in 10.0 mi NNW 6.9 mph - N/A   Clear
10:35 AM 59.9 °F 46.6 °F 61% 30.28 in 10.0 mi North 9.2 mph - N/A   Clear
10:55 AM 61.5 °F 46.8 °F 58% 30.27 in 10.0 mi NNW 15.0 mph - N/A   Clear
11:15 AM 61.7 °F 44.1 °F 52% 30.27 in 10.0 mi NNW 15.0 mph 20.7 mph N/A   Clear
11:35 AM 62.6 °F 41.0 °F 45% 30.28 in 10.0 mi NNW 15.0 mph 23.0 mph N/A   Scattered Clouds
11:55 AM 64.4 °F 42.4 °F 45% 30.28 in 10.0 mi NNW 12.7 mph 23.0 mph N/A   Scattered Clouds
12:15 PM 64.6 °F 39.9 °F 40% 30.28 in 10.0 mi NNW 17.3 mph 24.2 mph N/A   Scattered Clouds
12:35 PM 65.5 °F 38.5 °F 37% 30.27 in 10.0 mi NNW 12.7 mph 28.8 mph N/A   Scattered Clouds
12:55 PM 65.8 °F 39.7 °F 38% 30.27 in 10.0 mi NNW 13.8 mph - N/A   Scattered Clouds
1:15 PM 66.0 °F 39.2 °F 37% 30.26 in 10.0 mi NNW 11.5 mph 20.7 mph N/A   Scattered Clouds
1:35 PM 66.2 °F 39.4 °F 37% 30.26 in 10.0 mi NNW 15.0 mph 19.6 mph N/A   Mostly Cloudy
1:55 PM 67.1 °F 37.2 °F 33% 30.25 in 10.0 mi NNW 15.0 mph 24.2 mph N/A   Scattered Clouds
2:15 PM 67.6 °F 36.3 °F 32% 30.25 in 10.0 mi NNW 18.4 mph - N/A   Scattered Clouds
2:35 PM 65.7 °F 35.8 °F 33% 30.24 in 10.0 mi NNW 17.3 mph 20.7 mph N/A   Mostly Cloudy
2:55 PM 68.0 °F 35.6 °F 30% 30.23 in 10.0 mi NW 15.0 mph 24.2 mph N/A   Scattered Clouds
3:15 PM 67.8 °F 36.0 °F 31% 30.23 in 10.0 mi NNW 15.0 mph 24.2 mph N/A   Scattered Clouds
3:35 PM 68.0 °F 35.4 °F 30% 30.22 in 10.0 mi NW 12.7 mph 23.0 mph N/A   Scattered Clouds
3:55 PM 66.9 °F 34.7 °F 30% 30.22 in 10.0 mi NNW 13.8 mph 26.5 mph N/A   Scattered Clouds
4:15 PM 69.1 °F 35.2 °F 29% 30.21 in 10.0 mi WNW 16.1 mph 25.3 mph N/A   Scattered Clouds
4:35 PM 69.1 °F 36.5 °F 30% 30.21 in 10.0 mi NNW 15.0 mph 24.2 mph N/A   Scattered Clouds
4:55 PM 65.3 °F 35.4 °F 33% 30.22 in 10.0 mi NNW 23.0 mph 29.9 mph N/A   Mostly Cloudy
5:15 PM 67.8 °F 36.3 °F 31% 30.21 in 10.0 mi NNW 12.7 mph - N/A   Scattered Clouds
5:35 PM 67.1 °F 34.5 °F 30% 30.20 in 10.0 mi NW 12.7 mph - N/A   Clear
5:55 PM 67.3 °F 35.6 °F 31% 30.20 in 10.0 mi NNW 12.7 mph 19.6 mph N/A   Clear
6:15 PM 67.1 °F 36.7 °F 33% 30.20 in 10.0 mi North 11.5 mph - N/A   Clear
6:35 PM 67.1 °F 36.1 °F 32% 30.20 in 10.0 mi NNW 10.4 mph - N/A   Clear
6:55 PM 66.9 °F 35.8 °F 32% 30.20 in 10.0 mi NNW 10.4 mph - N/A   Clear
7:15 PM 66.0 °F 35.8 °F 33% 30.20 in 10.0 mi NW 11.5 mph - N/A   Clear
7:35 PM 64.6 °F 37.8 °F 37% 30.20 in 10.0 mi NW 5.8 mph - N/A   Clear
7:55 PM 63.1 °F 38.5 °F 40% 30.20 in 10.0 mi NW 3.5 mph - N/A   Clear
8:15 PM 62.6 °F 40.8 °F 45% 30.21 in 10.0 mi Calm Calm - N/A   Clear
8:35 PM 60.8 °F 41.0 °F 48% 30.22 in 10.0 mi NE 8.1 mph - N/A   Clear
8:55 PM 57.6 °F 42.8 °F 58% 30.22 in 10.0 mi ENE 3.5 mph - N/A   Clear
9:15 PM 57.7 °F 41.9 °F 56% 30.23 in 10.0 mi Calm Calm - N/A   Clear
9:35 PM 56.5 °F 42.4 °F 59% 30.23 in 10.0 mi Calm Calm - N/A   Clear
9:55 PM 55.6 °F 42.4 °F 61% 30.25 in 10.0 mi Calm Calm - N/A   Clear
10:15 PM 56.1 °F 42.6 °F 61% 30.25 in 10.0 mi East 4.6 mph - N/A   Clear
10:35 PM 53.2 °F 43.5 °F 70% 30.26 in 10.0 mi ENE 6.9 mph - N/A   Clear
10:55 PM 51.8 °F 44.6 °F 76% 30.26 in 10.0 mi ENE 3.5 mph - N/A   Clear
11:15 PM 52.2 °F 43.7 °F 73% 30.27 in 10.0 mi ENE 4.6 mph - N/A   Clear
11:35 PM 52.3 °F 44.1 °F 73% 30.26 in 10.0 mi Calm Calm - N/A   Clear
11:55 PM 52.2 °F 44.1 °F 74% 30.26 in 10.0 mi Calm Calm - N/A   Clear